Liuting Airport
ZSQD : now visible

Airfield :











YOU CAN JOIN US ON...

 
LOGIN :

Register | Disclaimer

   EN    FR    IT 

 









Legend :    VFR   Marginal VFR   IFR   Intensive IFR   Very Intensive IFR
Visi :
Ceiling :
>= 8 km
>= 3000ft
5 to 8 km
1000 to 3000 ft
1500m to 5 km
500 to 1000 ft
800 to 1500m
200 to 500 ft
< 800m
< 200 ft
Symbols :   Thunderstorms  Fog  Heavy snow  Heavy precipitations  Wind > 20 kt







- Airport Elevation : 33 ft
- IATA code : TAO


ZSQD - Liuting

CURRENT METAR :
  • 190500Z VRB01MPS 9999 FEW030 33/16 Q1009 NOSIG

EXPIRED METARs :
  • 190400Z VRB02MPS 9999 FEW030 32/16 Q1010 NOSIG

TAF TAF ZSQD
Valid from the 19 at 06:00 until the 20 at 06:00 UTC


190312Z 1906/2006 18004MPS CAVOK TX33/1906Z TN21/1921Z
No reported NOTAMs for that airfield.



MET'MAP, your aeronautical weather chart ! - Copyright ORBIFLY December 2007 - Disclaimer

ORBIFLY MET'MAP TEAM :

Programming & Development : Alexandra Zaïnal
Concept & Development : Baudouin d'Aumeries
Co-Development & Prog : Marc-Olivier Méhu
Technical & hardware support : Manuel Goepfert

Contact : metmap@orbifly.com




SOURCES & CREDITS :

   NOAA       Earth
Advisory